Temp
37 37 36 35 36 35 33 31 31 32 33 35 37 39 40 40 42 42 41 41 40 40 41 41 42 43 42 41 41 41 40 39 34 35 36 36 34 34 34 36 35 33 30
37 37 36 35 35 33 32 32 32 30 30 32 35 36 37 37 39 39 40 40 40 39 40 40 40 43 41 42 40 40 38 39 35 33 32 32 33 33 33 32 33 32 28
35 35 35 33 32 30 28 29 29 29 29 30 32 33 35 35 36 38 38 39 39 40 40 40 41 41 40 39 39 39 39 39 35 33 31 32 32 32 30 30 29 27 32
32 31 30 30 31 30 27 24 24 25 26 27 28 28 31 33 36 35 37 37 37 37 38 39 40 40 40 40 39 38 38 34 34 33 32 31 32 32 31 29 24 27 31
27 25 24 26 28 26 25 23 23 22 22 20 23 26 26 32 36 35 35 36 36 35 35 36 39 38 38 40 39 37 37 34 33 32 32 31 31 30 29 30 28 30 30
20 17 19 21 22 23 23 22 21 21 22 19 20 21 25 31 37 38 37 34 35 34 34 34 35 35 38 40 41 41 39 35 33 32 32 31 31 31 31 31 30 29 27
18 18 18 19 20 20 19 19 21 21 20 18 19 22 22 27 35 37 37 33 33 34 34 34 33 35 35 37 39 40 39 40 39 34 32 32 31 32 32 31 31 30 29
19 19 20 19 19 21 20 18 17 17 20 22 23 20 21 25 35 36 37 33 32 33 33 33 34 33 33 34 35 35 35 35 35 34 33 34 33 32 33 33 32 31 29
16 17 18 18 18 18 20 20 20 19 22 23 24 23 24 24 33 35 34 29 31 31 33 33 33 33 35 37 34 33 32 32 37 38 38 38 38 37 34 33 30 29 28
14 16 16 16 16 16 18 20 19 20 24 26 26 23 22 24 31 35 34 29 27 30 32 33 33 34 36 37 33 33 31 31 31 30 28 30 30 33 37 33 32 30 28
15 14 13 14 15 17 19 21 22 23 23 21 23 24 21 22 24 34 37 28 30 31 32 32 33 36 37 37 37 33 33 31 32 28 26 27 28 28 28 29 29 31 29
15 15 13 13 16 18 18 20 21 23 24 23 22 24 25 24 27 32 37 37 34 31 31 32 33 36 37 38 36 36 37 32 28 26 26 26 26 26 26 26 26 26 27
12 10 10 12 14 17 17 18 19 21 23 23 24 24 24 24 25 33 37 37 35 30 30 33 36 37 37 35 37 37 33 30 29 27 26 23 23 25 25 24 24 24 24
6 7 9 11 12 13 16 18 18 19 20 24 24 23 24 23 24 25 27 28 31 30 30 28 31 35 36 34 32 35 31 31 30 29 26 23 23 25 24 25 24 24 24
4 6 7 9 9 10 13 14 16 19 21 21 24 24 23 23 25 30 29 25 22 26 17 28 27 24 29 29 30 31 31 30 29 27 25 23 21 23 23 24 24 23 23
1 3 4 5 6 7 8 8 16 19 23 25 28 28 28 31 33 34 35 35 34 34 14 25 25 25 22 27 29 30 30 30 29 28 26 23 22 20 22 24 25 24 23
-3 0 2 3 3 4 5 5 4 10 17 20 23 25 29 32 32 34 35 36 36 32 10 13 14 18 23 22 26 30 29 30 29 27 25 24 22 22 22 23 24 24 22
-4 -1 -0 1 2 3 3 4 5 5 4 7 15 19 23 28 30 31 34 35 26 24 11 12 14 15 14 19 23 25 30 29 28 27 26 25 24 22 23 24 25 25 22
-1 0 1 2 2 2 3 3 3 4 4 5 7 12 15 22 25 28 29 30 28 27 12 8 10 10 11 11 21 30 31 30 29 27 26 25 25 24 23 23 25 25 22
2 3 2 1 2 2 2 2 2 1 1 2 4 6 4 8 11 15 19 24 26 25 15 14 13 10 12 12 14 30 32 31 30 29 25 26 25 26 25 24 25 24 22
3 3 3 2 1 1 1 1 1 1 1 1 2 6 14 11 9 12 13 14 19 20 13 13 12 13 13 12 11 23 32 31 32 30 26 26 26 25 25 25 26 23 21
3 2 2 1 1 2 2 2 2 1 0 -0 2 3 13 10 10 12 13 13 8 11 13 13 14 15 16 17 21 22 31 31 32 32 29 27 27 26 26 25 24 23 21
1 1 1 1 2 3 4 3 2 2 2 2 2 2 1 3 5 7 9 10 7 7 8 8 13 13 13 17 21 31 31 31 33 33 30 28 27 27 26 26 25 23 22
-2 -0 -0 1 0 1 1 2 4 4 3 3 3 2 2 3 4 6 7 7 2 9 10 12 14 16 13 15 19 29 34 34 34 34 33 29 27 27 27 27 25 24 23
-4 -1 -1 -0 -0 -0 1 1 1 2 3 4 4 4 3 3 3 5 7 7 9 10 12 15 16 15 15 15 18 21 27 33 33 33 32 30 28 28 27 27 26 24 23
-6 -3 -0 1 1 0 1 2 2 2 2 2 4 6 6 4 4 4 5 6 9 10 12 15 16 15 15 16 18 21 25 32 33 33 33 31 29 28 28 27 26 24 22
MSLP
1026.93 1026.84 1026.67 1026.52 1026.31 1025.88 1025.64 1025.43 1025.20 1024.73 1024.27 1023.74 1023.14 1022.29 1021.71 1021.58 1021.02 1020.69 1020.71 1020.91 1020.95 1021.03 1021.06 1020.98 1021.02 1021.07 1021.02 1021.17 1021.43 1021.85 1021.92 1022.38 1022.88 1023.88 1023.85 1024.08 1024.75 1024.78 1024.98 1025.11 1025.35 1025.43 1025.54
1027.27 1026.94 1026.96 1026.73 1026.56 1026.45 1026.29 1025.96 1025.66 1025.36 1024.92 1024.29 1023.54 1023.15 1022.56 1022.21 1021.51 1021.23 1021.17 1021.25 1021.21 1021.19 1021.15 1021.05 1021.07 1021.03 1021.19 1021.27 1021.34 1021.62 1021.93 1022.15 1022.68 1023.45 1024.00 1024.34 1024.79 1024.94 1024.98 1025.27 1025.65 1025.58 1025.70
1027.90 1027.71 1027.36 1027.15 1026.71 1026.47 1026.39 1026.24 1026.03 1025.75 1025.26 1024.55 1024.00 1023.61 1023.24 1022.61 1021.90 1021.87 1021.77 1021.75 1021.45 1021.25 1021.21 1021.21 1021.22 1021.08 1021.20 1021.33 1021.40 1021.63 1021.80 1022.01 1022.42 1023.08 1023.86 1024.33 1024.72 1024.97 1025.26 1025.54 1025.93 1025.94 1025.64
1028.63 1028.41 1028.06 1027.74 1027.31 1026.92 1026.42 1026.21 1026.19 1026.10 1025.87 1025.33 1024.71 1024.20 1023.77 1023.15 1022.86 1022.46 1022.35 1022.09 1021.74 1021.40 1021.31 1021.27 1021.26 1021.34 1021.40 1021.44 1021.48 1021.71 1021.66 1022.02 1022.37 1023.04 1023.55 1024.04 1024.35 1024.61 1024.96 1025.54 1025.91 1026.03 1025.55
1028.70 1028.41 1028.27 1028.09 1027.67 1027.18 1026.88 1026.56 1026.32 1026.13 1026.03 1026.00 1025.39 1024.86 1024.33 1023.77 1023.11 1022.71 1022.40 1022.07 1021.89 1021.63 1021.43 1021.44 1021.47 1021.45 1021.49 1021.38 1021.51 1021.70 1021.86 1022.17 1022.27 1022.77 1023.24 1023.71 1024.08 1024.37 1024.70 1025.08 1025.51 1025.66 1025.41
1029.82 1029.41 1028.85 1028.47 1028.05 1027.60 1027.24 1026.95 1026.64 1026.39 1026.15 1025.87 1025.52 1025.20 1024.73 1024.13 1023.39 1022.92 1022.62 1022.36 1022.18 1021.99 1021.81 1021.64 1021.50 1021.43 1021.47 1021.31 1021.24 1021.47 1021.66 1022.02 1022.35 1022.53 1022.87 1023.13 1023.61 1023.89 1024.25 1024.66 1024.96 1025.40 1025.39
1030.74 1030.10 1029.49 1028.86 1028.39 1028.08 1027.68 1027.22 1026.96 1026.71 1026.35 1025.94 1025.61 1025.31 1024.93 1024.36 1023.68 1023.13 1022.90 1022.71 1022.38 1022.16 1021.89 1021.76 1021.58 1021.45 1021.35 1021.36 1021.43 1021.49 1021.59 1021.69 1021.97 1022.16 1022.59 1022.65 1022.99 1023.15 1023.73 1023.95 1024.32 1024.73 1025.03
1031.34 1030.86 1030.13 1029.64 1029.10 1028.50 1028.04 1027.64 1027.25 1026.70 1026.40 1026.08 1025.60 1025.27 1024.92 1024.35 1023.85 1023.41 1023.02 1022.88 1022.76 1022.36 1021.97 1021.79 1021.70 1021.62 1021.56 1021.58 1021.70 1021.69 1021.77 1021.93 1022.11 1022.16 1022.35 1022.45 1022.43 1022.55 1022.91 1023.21 1023.77 1024.33 1024.98
1031.97 1031.60 1030.89 1030.29 1029.71 1029.15 1028.50 1027.89 1027.31 1026.73 1026.26 1025.94 1025.60 1025.27 1024.93 1024.31 1023.88 1023.41 1023.21 1023.01 1022.85 1022.58 1022.21 1021.87 1021.82 1021.52 1021.53 1021.56 1021.71 1022.01 1022.13 1022.26 1022.15 1022.21 1022.10 1022.16 1022.22 1022.35 1022.66 1023.35 1023.87 1024.44 1024.83
1032.34 1031.88 1031.37 1030.83 1030.28 1029.59 1028.95 1028.18 1027.47 1026.89 1026.20 1025.71 1025.30 1025.11 1024.80 1024.31 1023.80 1023.33 1023.11 1023.03 1023.05 1022.96 1022.49 1022.03 1021.88 1021.45 1021.49 1021.40 1021.64 1021.91 1022.12 1022.33 1022.41 1022.58 1022.69 1022.91 1022.87 1022.72 1022.81 1023.19 1023.69 1024.12 1024.66
1032.51 1032.01 1031.46 1030.95 1030.43 1029.79 1028.95 1028.25 1027.47 1026.77 1026.11 1025.56 1025.18 1024.65 1024.44 1024.27 1023.74 1023.12 1022.72 1022.67 1022.93 1022.77 1022.70 1022.28 1021.99 1021.36 1021.42 1021.40 1021.25 1021.71 1021.98 1022.22 1022.67 1022.98 1023.19 1023.33 1023.53 1023.72 1023.75 1023.75 1023.82 1024.05 1024.56
1032.69 1032.26 1031.69 1030.94 1030.50 1029.79 1029.02 1028.20 1027.45 1026.73 1026.03 1025.43 1024.99 1024.34 1023.90 1023.70 1023.43 1022.95 1022.50 1022.34 1022.51 1022.66 1022.45 1022.24 1021.92 1021.58 1021.40 1021.17 1021.15 1021.48 1021.74 1022.22 1022.75 1023.27 1023.67 1023.85 1024.06 1024.30 1024.32 1024.36 1024.60 1024.73 1024.89
1032.87 1032.52 1031.71 1030.97 1030.55 1029.87 1029.12 1028.25 1027.55 1026.74 1026.03 1025.27 1024.88 1024.38 1023.78 1023.27 1023.03 1022.60 1022.27 1022.20 1022.30 1022.31 1022.24 1022.12 1021.84 1021.48 1021.25 1021.15 1021.15 1021.29 1021.64 1022.30 1022.77 1023.23 1023.67 1023.97 1024.18 1024.42 1024.79 1024.92 1025.19 1025.47 1025.44
1033.17 1032.53 1031.83 1031.12 1030.50 1029.92 1029.19 1028.44 1027.59 1026.85 1026.06 1025.25 1024.54 1024.05 1023.64 1023.33 1022.89 1022.63 1022.38 1022.22 1022.19 1022.20 1022.15 1022.09 1021.92 1021.65 1021.45 1021.38 1021.27 1021.23 1021.56 1021.99 1022.49 1022.88 1023.54 1023.89 1024.34 1024.63 1024.89 1025.08 1025.32 1025.60 1025.72
1033.31 1032.65 1031.96 1031.33 1030.68 1029.97 1029.37 1028.67 1027.83 1027.00 1026.40 1025.46 1024.43 1023.84 1023.37 1022.84 1022.78 1022.53 1022.31 1022.17 1022.22 1022.26 1022.30 1022.23 1022.12 1021.77 1021.74 1021.60 1021.45 1021.27 1021.55 1021.86 1022.40 1022.87 1023.43 1023.94 1024.33 1024.65 1024.82 1025.14 1025.26 1025.64 1025.87
1033.45 1032.72 1032.10 1031.55 1030.85 1030.11 1029.32 1028.46 1027.95 1026.89 1025.90 1025.06 1024.24 1023.64 1022.85 1022.30 1022.02 1022.01 1021.90 1021.89 1022.02 1022.29 1022.63 1022.70 1022.66 1022.43 1022.27 1021.95 1021.81 1021.68 1021.66 1021.78 1022.12 1022.66 1023.24 1023.71 1024.26 1024.66 1024.80 1024.98 1025.18 1025.38 1025.77
1033.37 1032.63 1031.99 1031.40 1030.74 1030.12 1029.42 1028.71 1027.69 1026.94 1026.37 1025.46 1024.59 1023.72 1022.67 1022.00 1021.54 1021.24 1021.25 1021.26 1021.63 1021.98 1022.59 1022.73 1022.64 1022.61 1022.47 1022.26 1021.97 1021.72 1021.75 1021.78 1021.99 1022.31 1022.88 1023.42 1023.95 1024.32 1024.57 1024.78 1025.08 1025.47 1025.79
1032.73 1032.14 1031.61 1031.02 1030.54 1029.95 1029.33 1028.65 1028.02 1027.27 1026.41 1025.57 1024.93 1024.08 1023.06 1022.19 1021.43 1020.94 1020.53 1020.73 1021.21 1021.36 1022.36 1022.53 1022.49 1022.47 1022.46 1022.40 1021.88 1021.57 1021.37 1021.64 1021.85 1022.11 1022.47 1022.99 1023.59 1023.93 1024.39 1024.66 1024.91 1025.38 1025.87
1032.00 1031.35 1030.79 1030.33 1029.94 1029.49 1028.99 1028.41 1027.82 1027.20 1026.54 1025.85 1025.11 1024.27 1023.55 1022.66 1021.79 1020.97 1020.45 1019.81 1020.31 1021.12 1021.82 1022.23 1022.02 1022.10 1021.99 1021.74 1021.55 1021.34 1021.25 1021.23 1021.39 1021.78 1022.10 1022.46 1023.07 1023.56 1024.00 1024.40 1024.82 1025.25 1025.66
1031.13 1030.50 1030.02 1029.59 1029.10 1028.66 1028.27 1027.87 1027.36 1026.88 1026.35 1025.75 1025.17 1024.45 1023.70 1023.05 1022.06 1021.11 1020.49 1020.08 1019.68 1020.30 1020.96 1021.41 1021.42 1021.57 1021.53 1021.42 1021.24 1021.03 1020.89 1020.94 1021.14 1021.29 1021.73 1022.10 1022.51 1023.01 1023.46 1023.99 1024.45 1024.87 1025.38
1030.40 1029.86 1029.32 1028.81 1028.31 1027.88 1027.49 1027.06 1026.65 1026.26 1025.80 1025.25 1024.67 1024.22 1023.50 1022.70 1021.89 1021.30 1020.85 1020.44 1020.23 1020.31 1020.52 1020.81 1020.89 1020.99 1020.98 1020.90 1020.83 1020.73 1020.43 1020.46 1020.61 1020.92 1021.27 1021.72 1022.06 1022.53 1023.01 1023.47 1023.95 1024.50 1025.12
1029.87 1029.37 1028.86 1028.34 1027.63 1027.03 1026.55 1026.15 1025.77 1025.36 1024.93 1024.49 1023.90 1023.44 1022.84 1022.21 1021.65 1021.12 1020.56 1020.10 1020.05 1020.19 1020.11 1020.22 1020.24 1020.33 1020.35 1020.38 1020.24 1019.99 1019.88 1020.01 1020.14 1020.47 1020.88 1021.24 1021.64 1021.97 1022.49 1023.06 1023.64 1024.26 1024.86
1029.46 1028.97 1028.31 1027.66 1027.01 1026.23 1025.58 1025.14 1024.75 1024.32 1023.89 1023.50 1023.11 1022.74 1022.39 1022.03 1021.59 1021.07 1020.60 1020.27 1020.13 1020.08 1019.81 1019.83 1019.82 1019.77 1019.76 1019.72 1019.62 1019.30 1019.20 1019.36 1019.57 1019.87 1020.40 1020.78 1021.19 1021.56 1021.96 1022.53 1023.14 1023.87 1024.49
1029.16 1028.61 1027.97 1027.20 1026.54 1025.88 1025.11 1024.47 1023.94 1023.28 1022.84 1022.47 1022.11 1021.79 1021.47 1021.12 1020.80 1020.44 1020.11 1019.82 1019.73 1019.60 1019.45 1019.25 1019.09 1018.92 1019.04 1019.17 1019.10 1018.85 1018.56 1018.81 1019.09 1019.26 1019.69 1020.25 1020.66 1021.07 1021.47 1021.97 1022.63 1023.30 1023.97
1029.00 1028.42 1027.66 1026.89 1026.15 1025.42 1024.64 1023.88 1023.27 1022.63 1022.06 1021.52 1020.99 1020.63 1020.37 1020.17 1019.94 1019.69 1019.45 1019.18 1018.98 1018.89 1018.59 1018.41 1018.37 1018.31 1018.35 1018.50 1018.56 1018.48 1018.31 1018.21 1018.58 1018.85 1019.21 1019.64 1020.07 1020.48 1020.91 1021.39 1022.10 1022.92 1023.57
1028.78 1028.09 1027.28 1026.40 1025.65 1024.92 1024.16 1023.33 1022.58 1021.94 1021.33 1020.82 1020.27 1019.65 1019.25 1019.12 1018.94 1018.75 1018.59 1018.43 1018.21 1018.01 1017.77 1017.57 1017.50 1017.55 1017.57 1017.65 1017.75 1017.79 1017.84 1017.69 1017.82 1018.21 1018.60 1018.98 1019.45 1019.97 1020.45 1020.93 1021.64 1022.44 1023.17
Wind_Speed
7 6 6 5 5 5 5 6 8 8 8 7 7 8 8 7 5 3 3 3 3 3 3 3 3 2 2 2 2 1 2 2 3 1 1 2 2 4 3 3 2 2 3
6 6 6 5 4 4 5 6 6 6 7 7 7 7 8 7 7 7 5 4 3 3 4 3 4 2 2 2 2 2 2 2 3 3 1 2 2 2 3 3 1 2 2
8 7 7 7 7 6 5 5 5 6 7 7 7 8 8 7 8 6 5 5 4 4 4 4 4 3 3 2 2 3 2 2 2 2 3 1 1 2 2 2 1 1 1
4 5 6 7 8 6 6 5 5 5 5 6 7 6 7 6 6 6 5 4 5 4 4 4 3 3 4 4 3 4 3 2 2 2 2 2 1 2 2 2 0 2 2
5 6 6 7 7 7 6 7 6 5 4 4 5 6 6 5 5 6 6 5 5 5 5 4 4 4 6 5 2 3 3 2 2 2 2 2 2 2 4 2 2 2 2
7 6 6 6 6 7 6 7 6 7 6 5 6 5 6 4 11 11 10 5 5 4 4 5 4 4 5 6 5 7 5 4 3 2 2 3 3 3 4 4 3 2 2
6 7 8 7 7 7 6 6 6 6 5 5 4 4 5 6 11 12 10 5 5 5 4 4 4 3 4 4 5 5 4 4 3 4 3 4 4 6 6 5 5 2 1
7 8 9 10 10 10 7 5 6 4 4 4 5 3 4 4 9 10 10 5 5 6 4 4 4 4 4 3 3 2 2 1 1 2 4 4 4 5 6 5 4 4 2
8 9 9 10 10 10 11 10 7 4 4 4 4 5 5 6 10 8 7 4 5 6 5 4 3 3 5 6 4 3 2 0 2 1 1 2 5 8 8 5 3 4 1
9 9 7 7 9 10 10 11 5 6 7 5 6 4 5 6 11 10 6 1 3 5 7 5 6 4 5 4 4 4 4 3 2 3 4 5 7 2 8 4 4 4 2
9 7 6 7 10 9 10 10 9 9 8 5 7 5 6 5 7 11 8 0 2 4 5 5 4 8 6 6 7 5 4 6 4 3 3 3 3 3 3 3 3 2 2
10 11 10 9 8 9 10 10 10 9 9 8 6 7 4 5 7 10 10 5 1 3 3 4 5 11 8 5 4 10 9 8 4 3 2 2 2 2 2 4 4 4 3
10 11 11 10 10 9 10 10 9 9 8 8 5 6 7 3 3 10 12 8 3 2 2 5 10 10 7 5 6 11 10 5 4 3 3 2 2 3 3 4 4 4 4
11 11 11 11 10 9 7 7 7 7 7 8 8 6 6 4 4 3 3 3 6 3 3 4 7 6 4 4 3 6 5 5 5 4 2 2 2 3 2 1 1 1 1
10 10 10 8 9 9 9 8 8 9 10 9 9 7 8 8 6 10 8 4 3 5 0 2 3 2 2 2 2 2 4 4 4 3 3 3 2 2 2 1 2 2 1
9 8 7 8 8 8 9 9 14 19 21 22 22 18 11 17 20 18 17 16 13 10 3 2 2 3 3 1 1 1 2 5 4 4 3 3 3 3 3 2 1 1 2
8 9 7 8 8 8 8 8 10 10 19 21 21 23 24 23 20 19 18 17 14 9 3 3 3 3 4 3 3 3 2 3 4 5 4 5 3 2 4 3 3 1 1
8 11 8 7 7 7 8 8 8 9 9 8 11 16 19 22 20 20 19 13 4 6 3 4 4 4 3 3 3 2 3 3 3 4 5 5 5 4 4 4 4 5 2
8 7 7 7 7 8 8 9 8 9 9 9 8 12 11 19 21 22 20 9 8 9 3 3 3 3 3 3 3 5 5 4 5 4 5 6 6 5 4 4 4 5 5
7 11 10 7 7 7 7 7 8 8 8 8 7 8 4 6 8 7 5 6 4 6 5 5 4 3 4 3 3 5 6 4 4 5 5 5 6 6 6 6 6 5 4
7 8 10 8 7 7 7 8 8 8 8 8 8 8 18 10 8 8 7 5 5 3 3 4 4 4 4 4 3 4 6 6 6 5 5 6 6 6 6 5 5 4 5
5 7 7 7 7 8 8 8 8 9 9 9 9 8 20 10 8 7 6 5 4 5 4 5 4 5 4 5 5 4 5 6 6 7 6 6 6 6 6 6 6 5 5
6 7 7 7 7 9 8 8 9 9 9 9 9 8 7 7 8 9 8 6 3 3 3 3 4 4 3 4 4 7 6 6 6 5 6 7 6 6 7 7 7 7 7
6 7 7 7 7 8 7 8 9 10 10 9 9 8 8 8 8 9 8 5 4 4 5 5 5 7 4 4 4 6 7 7 5 5 9 7 7 8 7 7 8 8 7
5 7 7 7 7 7 8 8 9 9 8 8 8 9 8 8 8 8 8 6 6 6 7 7 6 7 9 9 8 8 9 10 8 7 7 9 9 11 9 8 9 8 8
6 7 7 6 7 7 7 8 8 9 8 8 8 7 8 8 8 8 8 8 8 8 8 7 8 11 10 8 10 11 13 12 10 11 9 8 8 8 8 9 12 8 10
Wind_Direction
11 1 359 3 0 12 22 9 358 349 354 355 354 358 6 357 350 15 329 278 240 221 232 219 230 215 174 143 147 190 183 162 131 156 92 97 102 141 123 90 88 78 346
338 352 344 343 351 27 22 4 354 351 347 346 3 8 5 355 6 7 354 313 275 265 253 232 227 234 216 192 160 211 191 172 133 135 113 112 126 145 129 116 42 48 346
353 339 335 333 342 350 7 5 8 354 348 357 4 10 359 350 6 0 353 332 314 280 266 246 245 209 225 210 205 204 184 160 119 128 136 126 120 149 104 85 159 311 297
338 348 349 338 328 328 334 350 358 356 357 357 358 356 346 351 354 349 339 332 326 325 320 294 269 238 236 219 217 222 179 143 140 127 135 134 144 130 111 157 298 251 255
7 9 359 335 331 328 330 332 334 350 350 346 354 356 349 342 356 341 344 341 339 334 329 313 295 278 255 229 206 218 186 155 141 143 133 136 157 154 188 156 178 213 245
350 358 334 347 343 340 331 329 330 328 334 355 354 353 344 343 349 355 349 339 335 326 322 325 310 298 279 264 256 235 187 177 201 158 160 166 175 167 160 173 163 168 258
352 348 353 352 352 346 334 335 321 314 321 315 322 338 335 328 337 346 347 338 327 316 311 313 327 314 303 290 271 241 201 209 208 184 208 194 172 177 172 177 179 159 191
0 353 357 353 347 341 337 332 310 297 300 300 302 300 313 309 329 332 337 329 325 320 313 311 303 311 299 255 244 212 172 177 235 222 219 236 205 178 178 175 160 126 87
360 345 347 347 341 337 334 330 321 297 293 283 278 300 309 303 317 324 334 326 321 331 324 314 296 283 288 276 211 195 152 241 291 222 223 255 216 187 157 132 139 143 147
343 330 323 328 331 326 320 319 301 299 292 274 282 260 272 285 303 300 308 296 342 333 331 326 314 305 282 259 191 179 182 196 135 76 34 41 40 125 155 136 148 158 138
327 314 321 326 321 309 311 315 312 309 301 288 280 274 263 256 283 288 289 214 298 322 325 328 318 325 309 266 202 178 199 150 175 115 95 59 50 48 54 55 55 129 150
320 320 319 319 314 311 310 310 312 311 303 296 290 292 271 252 256 269 273 277 296 315 316 321 312 315 308 300 243 194 182 144 126 122 123 108 96 67 54 65 49 51 53
317 309 311 313 305 305 309 305 306 307 303 298 289 283 286 284 265 272 270 251 222 237 272 309 325 324 317 340 275 194 151 149 150 157 170 160 156 123 96 81 69 75 64
307 307 310 309 310 303 298 298 293 293 297 295 296 291 290 285 280 263 257 277 247 246 293 325 312 329 332 320 301 184 157 162 174 175 149 121 106 128 123 119 111 112 79
306 306 307 302 303 304 297 297 291 286 288 291 291 279 282 284 273 280 253 220 225 239 228 304 324 341 331 333 311 143 162 146 155 143 142 143 121 140 126 139 128 135 138
301 302 301 301 298 296 297 295 285 288 289 284 280 276 277 265 271 274 275 245 225 227 55 215 253 272 280 245 265 203 187 179 164 149 147 148 155 151 149 146 126 145 131
278 289 289 288 289 291 292 293 299 297 293 291 288 284 283 279 290 265 261 251 226 228 169 219 208 210 244 254 244 189 192 204 163 162 158 160 143 141 160 167 172 156 119
272 274 275 277 280 282 283 285 286 291 299 299 296 296 296 294 293 302 246 237 235 240 188 201 223 220 223 226 242 253 175 174 188 169 161 159 164 161 169 185 183 195 132
279 278 276 274 272 272 278 279 280 283 284 287 296 293 297 298 293 286 299 226 222 226 220 231 220 220 226 224 223 250 256 201 188 178 177 166 167 168 173 180 190 177 135
279 271 268 268 269 268 267 269 272 270 275 278 280 283 281 296 290 289 268 298 217 200 192 214 225 225 233 220 227 245 254 246 211 190 177 177 170 176 178 179 187 179 162
292 293 283 280 275 270 263 264 264 265 266 267 267 267 274 263 258 263 273 260 242 238 200 206 211 223 224 224 210 232 247 251 233 209 181 182 175 176 175 176 179 152 146
295 300 297 284 281 279 269 261 260 259 259 260 267 263 273 276 278 279 279 264 224 216 206 200 221 210 207 209 212 216 226 240 243 224 196 181 183 174 169 171 165 157 156
297 298 299 297 295 297 293 274 264 259 257 257 257 260 250 252 261 267 267 276 276 251 245 213 227 237 217 218 217 236 229 236 239 209 198 184 183 178 172 175 170 165 168
291 294 293 295 294 295 295 296 296 276 260 258 256 250 249 247 249 255 259 254 239 242 240 238 226 233 216 219 226 248 237 231 243 213 194 186 187 179 174 172 174 173 165
290 291 290 288 292 294 296 294 291 288 288 281 257 251 247 245 246 247 251 245 242 234 240 236 234 233 235 228 230 241 249 227 220 194 194 187 188 180 179 174 169 164 156
289 289 287 289 291 288 291 294 294 294 288 282 281 273 253 244 244 244 242 244 246 243 240 242 236 231 231 231 231 233 246 245 212 202 192 189 183 181 178 171 168 163 161